Location: Fours
(44.3167°N, 6.7000°E)
Time: 14:54:49
(UTC+00:00)

ISS - Pass Details

Date: 30 September 2021
Orbit: 418 x 423 km, 51.6° (Epoch: 19 October)

Event Time Altitude Azimuth Distance (km) Brightness Sun altitude
Rises 19:02:23 0° 302° (WNW) 2,367 1.5 -19.8°
Reaches altitude 10° 19:04:30 10° 306° (NW) 1,501 0.1 -20.1°
Enters shadow 19:07:34 54° 3° (N) 513 -3.4 -20.6°
